Regional Weather Roundup
Issued by NWS

Home | Current Version | Previous Version | Graphics & Text | Print | Product List | Glossary On
Versions: 1 2 3 4 5 6 7 8 9 10 11 12 13 14 15 16 17 18 19 20 21 22 23 24 25 26 27 28 29 30 31 32 33 34 35 36 37 38 39 40 41 42 43 44 45 46 47 48 49 50
000
ASUS43 KFSD 311502
RWRSD

WEATHER ROUNDUP FOR SOUTH DAKOTA
NATIONAL WEATHER SERVICE SIOUX FALLS SD
1000 AM CDT THU JUL 31 2014

NOTE: "FAIR" INDICATES FEW OR NO CLOUDS BELOW 12,000 FEET WITH NO
SIGNIFICANT WEATHER AND/OR OBSTRUCTIONS TO VISIBILITY.


SDZ001>005-009-010-012>017-311600-
NORTHWEST AND NORTH CENTRAL SOUTH DAKOTA

CITY           SKY/WX    TMP DP  RH WIND       PRES   REMARKS
BUFFALO          N/A     71  55  56 SW3       30.10F
FAITH            N/A     74  54  49 NW9       30.13F
MOBRIDGE         N/A     71  60  68 S8        30.08S
$$

SDZ012>016-024>037-041>051-057-063-072>074-311600-
SOUTHWEST AND SOUTH CENTRAL SOUTH DAKOTA

CITY           SKY/WX    TMP DP  RH WIND       PRES   REMARKS
RAPID CTY ARPT SUNNY     76  52  43 N6        30.18R
PIERRE         MOSUNNY   72  56  57 NE7       30.10R
CUSTER         SUNNY     70  42  36 N9        30.30R
ELLSWORTH AFB  SUNNY     74  52  45 N8        30.19R
PHILIP         SUNNY     77  58  51 NW5       30.12S
PINE RIDGE     SUNNY     67  55  65 CALM      30.19S
WINNER         FAIR      71  57  61 N5        30.08S
$$

SDZ004>011-016>023-039-040-311600-
NORTHEAST SOUTH DAKOTA

CITY           SKY/WX    TMP DP  RH WIND       PRES   REMARKS
ABERDEEN       PTSUNNY   75  56  51 CALM      30.08F
WATERTOWN      SUNNY     73  56  54 NE3       30.08F
SISSETON         N/A     75  62  64 N5        30.06S
$$

SDZ017-020-022-023-036>040-048>070-311600-
SOUTHEAST SOUTH DAKOTA

CITY           SKY/WX    TMP DP  RH WIND       PRES   REMARKS
SIOUX FALLS    PTSUNNY   72  59  63 CALM      30.09S
HURON          PTSUNNY   67  59  75 VRB3      30.08S
CHAMBERLAIN    SUNNY     75  58  55 NE6       30.07F
MITCHELL       MOSUNNY   72  65  78 NE9       30.08S
YANKTON        PTSUNNY   63  61  94 NE5       30.09S
$$

ABBREVIATIONS USED IN REMARKS
   TC - TEMPERATURE IN CELSIUS
  WCI - WIND CHILL INDEX
   HX - HEAT INDEX
  VSB - VISIBILITY




USA.gov is the U.S. government's official web portal to all federal, state and local government web resources and services.